Location: Newark
(44.3681°N, 100.3364°W)
Time: 13:32:52
(UTC+00:00)

S-56A Canister/Altair - Pass Details

Date: 28 February 2020
Orbit: 634 x 2498 km, 38.9° (Epoch: 29 March)

Event Time Altitude Azimuth Distance (km) Brightness Sun altitude
Rises 17:57:32 0° 259° (W) 5,575 11.9 36.1°
Reaches altitude 10° 18:00:54 10° 257° (WSW) 4,751 11.6 36.3°
Maximum altitude 18:14:56 71° 178° (S) 2,593 11.3 36.9°
Drops below altitude 10° 18:29:36 10° 98° (E) 4,943 11.9 37.4°
Sets 18:33:11 0° 97° (E) 5,803 12.2 37.5°
